Flight Track Log - Related Links

Times and Time Zones

All times are in EST time to prevent confusion due to time zone crossing. See the EJA668 flight status page for this flight to view local times or setup timezone preferences in your user account.

Time Position Orientation Groundspeed Altitude Reporting Facility
EST Latitude Longitude Course Direction KTS MPH feet Rate Location/Type
01:41PM 40.4872 -107.2331 306° West 5 6 6,600  Level Denver Center
01:42PM 40.4653 -107.1883 123° Southeast 129 148 8,000 2,565 Climbing Denver Center
01:43PM 40.4147 -107.1561 154° Southeast 179 206 11,900 2,855 Climbing Denver Center
01:44PM 40.3856 -107.2028 231° Southwest 228 262 13,900 2,806 Climbing Denver Center
01:45PM 40.4483 -107.2428 334° Northwest 242 278 17,700 2,468 Climbing Denver Center
01:46PM 40.5125 -107.2983 327° Northwest 286 329 19,000 1,452 Climbing Denver Center
01:47PM 40.4875 -107.2324 300° West  Level FlightAware Approximate
01:47PM 40.5808 -107.4000 312° West 329 379 20,700  Level Denver Center
01:48PM 40.5276 -107.3197 306° West  Level FlightAware Approximate
01:48PM 40.6408 -107.4928 310° West 343 395 22,200  Level Denver Center
01:49PM 40.7122 -107.6056 310° West 356 410 23,900 1,571 Climbing Denver Center
01:50PM 40.7817 -107.7131 310° West 359 413 25,500 1,452 Climbing Denver Center
01:51PM 40.8442 -107.8094 311° West 360 414 26,900 1,512 Climbing Denver Center
01:52PM 40.9131 -107.9214 309° West 356 410 28,600 1,355 Climbing Denver Center
01:54PM 40.9736 -108.0172 310° West 354 407 29,700 677 Climbing Denver Center
01:55PM 41.0442 -108.1308 309° West 356 410 30,000 207 Climbing Denver Center
01:55PM 41.0647 -108.1628 310° West 356 410 30,000  Level Denver Center
01:56PM 41.1314 -108.2833 306° West 360 414 30,000  Level Denver Center
01:57PM 41.1125 -108.4092 259° West 370 426 30,000 774 Level Denver Center
01:58PM 40.9936 -108.4642 199° South 446 513 31,600 1,680 Climbing Denver Center
01:59PM 40.8794 -108.4108 161° South 454 522 33,500 2,016 Climbing Denver Center
02:00PM 40.7719 -108.3583 160° South 432 497 35,800 2,177 Climbing Denver Center
02:01PM 40.6519 -108.3017 160° South 398 458 38,000 1,500 Climbing Denver Center
02:02PM 40.5525 -108.2536 160° South 396 456 38,900 484 Climbing Denver Center
02:03PM 40.4322 -108.1983 161° South 407 468 39,000 44 Climbing Denver Center
02:04PM 40.3256 -108.1481 160° South 421 484 39,000  Level Denver Center
02:06PM 40.1822 -108.0808 160° South 424 488 39,000  Level Denver Center
02:07PM 40.0750 -108.0306 160° South 425 489 39,000  Level Denver Center
02:08PM 39.9853 -107.9889 160° South 425 489 39,000  Level Denver Center
02:09PM 39.8406 -107.9222 161° South 426 490 39,000  Level Denver Center
02:10PM 39.7164 -107.8661 161° South 422 486 39,000  Level Denver Center
02:11PM 39.6083 -107.8156 160° South 422 486 39,000  Level Denver Center
02:12PM 39.4806 -107.7575 161° South 431 496 39,000  Level Denver Center
02:13PM 39.3728 -107.7089 161° South 431 496 39,000  Level Denver Center
02:14PM 39.2639 -107.6589 160° South 431 496 39,000  Level Denver Center
02:15PM 39.1392 -107.6028 161° South 425 489 39,000  Level Denver Center
02:16PM 39.0311 -107.5553 161° South 425 489 39,000  Level Denver Center
02:17PM 38.9061 -107.4978 160° South 426 490 39,000  Level Denver Center
02:18PM 38.7986 -107.4508 161° South 425 489 39,000  Level Denver Center
02:19PM 38.6731 -107.3956 161° South 426 490 39,000  Level Denver Center
02:20PM 38.5642 -107.3472 161° South 431 496 39,000  Level Denver Center
02:21PM 38.4369 -107.2911 161° South 431 496 39,000  Level Denver Center
02:22PM 38.3283 -107.2436 161° South 431 496 39,000  Level Denver Center
02:23PM 38.2022 -107.1856 160° South 431 496 39,000  Level Denver Center
02:24PM 38.1022 -107.1431 162° South 431 496 39,000  Level Denver Center
02:25PM 37.9692 -107.0819 160° South 426 490 39,000  Level Denver Center
02:26PM 37.8606 -107.0367 162° South 426 490 39,000  Level Denver Center
02:27PM 37.7467 -106.9858 161° South 429 494 39,000  Level Denver Center
02:28PM 37.6197 -106.9306 161° South 430 495 39,000  Level Denver Center
02:29PM 37.5108 -106.8850 162° South 429 494 39,000  Level Denver Center
02:30PM 37.3844 -106.8303 161° South 429 494 39,000  Level Denver Center
02:31PM 37.2753 -106.7839 161° South 432 497 39,000 -97 Level Denver Center
02:32PM 37.1667 -106.7364 161° South 431 496 38,800 -1,258 Descending Denver Center
02:33PM 37.0428 -106.6839 161° South 422 486 36,400 -2,226 Descending Denver Center
02:35PM 36.9378 -106.6389 161° South 417 480 34,200 -2,371 Descending Denver Center
02:36PM 36.8117 -106.5856 161° South 421 484 31,500 -2,468 Descending Denver Center
02:37PM 36.7078 -106.5417 161° South 416 479 29,100 -2,177 Descending Denver Center
02:38PM 36.5847 -106.4917 162° South 421 484 27,000 -984 Descending Denver Center
02:39PM 36.4736 -106.4447 161° South 429 494 27,000 -234 Level Albuquerque Center
02:40PM 36.3369 -106.3875 161° South 431 496 26,500 -1,415 Descending Albuquerque Center
02:41PM 36.2244 -106.3411 162° South 427 491 24,100 -2,390 Descending Albuquerque Center
02:42PM 36.1106 -106.2922 161° South 431 496 21,600 -2,419 Descending Albuquerque Center
02:43PM 35.9994 -106.2467 162° South 425 489 19,100 -2,468 Descending Albuquerque Center
02:44PM 35.8925 -106.2025 162° South 403 464 16,500 -2,710 Descending Albuquerque Center
02:45PM 35.7956 -106.1625 161° South 377 434 13,500 -2,049 Descending Albuquerque Center
02:46PM 35.7139 -106.1289 162° South 314 361 12,300 -1,854 Descending Albuquerque Center
02:47PM 35.6314 -106.1614 198° South 286 329 9,700 -2,081 Descending Albuquerque Center
02:48PM 35.5775 -106.1692 187° South 230 265 8,000 -1,306 Descending Albuquerque Center
02:49PM 35.5783 -106.1217 89° East 172 198 7,000 -968 Descending Albuquerque Center

Login

Don't have an account? Register now (free) for customized features, flight alerts, and more!